Meteógrafos Informações Meteorológicas em tempo real
Aeroporto de Congonhas
21-11-2019 05:56

Temperatura atual: 19 graus 66 F    Umidade relativa: 82 %
Velocidade do vento: 04 nós 7 Km/h    Direção: 100 graus E
Ajuste do altímetro ..: 1018 HPA
Visibilidade: Ótima    Tempo presente: Muitas Nuvens

Observação
Poucas nuvens a 1000 Pés., Céu nublado a 1500 Pés., Céu nublado a 1900 Pés.
Data Hora BRTTempo°CUmidadePressãoVentoVisib.
21/11 - 04:56   Céu Encoberto 19° 88% 1018 Sudeste/3 km/h OK
21/11 - 03:56   Parcialmente Nublado 18° 88% 1018 Sul-sudeste/5 km/h 9999
21/11 - 02:55   Parcialmente Nublado 18° 88% 1018 Sudeste/9 km/h OK
21/11 - 01:56   Parcialmente Nublado 19° 82% 1019 Sudeste/10 km/h 9999
21/11 - 00:56   Céu Encoberto 19° 88% 1019 Sul-sudeste/12 km/h OK
20/11 - 23:55   Céu Encoberto 19° 88% 1020 Sudeste/12 km/h OK
20/11 - 22:56   Parcialmente Nublado 20° 82% 1020 Sudeste/10 km/h OK
20/11 - 21:56   Poucas nuvens esparsas 20° 82% 1020 Sudeste/10 km/h 9000
20/11 - 20:56   Poucas nuvens esparsas 19° 88% 1020 Sudeste/14 km/h 9000
20/11 - 19:56   Poucas nuvens esparsas 19° 88% 1020 Sudeste/14 km/h 9000
20/11 - 18:56   Poucas nuvens esparsas 19° 88% 1019 Sul-sudeste/18 km/h 6000
20/11 - 17:56   Poucas nuvens esparsas 19° 88% 1019 Sul/21 km/h 6000
20/11 - 16:56   Poucas nuvens esparsas 20° 82% 1019 Sul/21 km/h 8000
20/11 - 15:56   Poucas nuvens esparsas 21° 77% 1018 Sul/21 km/h 9000
20/11 - 14:56   Nuvens esparsas 23° 73% 1019 Sul-sudoeste/16 km/h OK
20/11 - 13:56   Nuvens esparsas 24° 69% 1019 Sul/25 km/h OK
20/11 - 12:56   Poucas nuvens esparsas 25° 61% 1020 Sudeste/12 km/h OK
20/11 - 11:56   Poucas nuvens esparsas 25° 61% 1020 Sudeste/12 km/h OK
20/11 - 10:56   Parcialmente Nublado 23° 69% 1021 Leste/10 km/h 9999
20/11 - 09:56   Parcialmente Nublado 22° 68% 1021 Leste/14 km/h 9999
20/11 - 08:56   Parcialmente Nublado 21° 77% 1021 Leste/12 km/h 9999
20/11 - 07:56   Parcialmente Nublado 20° 77% 1020 Leste/10 km/h OK
20/11 - 06:56   Parcialmente Nublado 19° 82% 1019 Leste/10 km/h 9999
20/11 - 05:56   Parcialmente Nublado 19° 82% 1019 Leste/10 km/h 9999

Termo de Uso  |   Links Úteis  |   Imprensa  |  Anuncie  |  Fale Conosco  |  Versão Celular  |   Política de Privacidade

Apolo11.com - Todos os direitos reservados - 2000 - 2019

"Liberdade, essa palavra que o sonho humano alimenta, que não há ninguém que explique e ningém que não entenda." - Cecília Meireles